Franklin, PA

7:33 PM EST on November 21, 2019 (GMT -0500)
Venango Regional

Weather History for KFKL - September, 2019

Change the Weather History Date:

Friday, September 13, 2019

  Actual Average Record
Temperature  
Mean Temperature 68 °F -  
Max Temperature 75 °F 75 °F 98 °F (1931)
Min Temperature 60 °F 50 °F 33 °F (1955)
Cooling Degree Days 2    
Growing Degree Days 18 (Base 50)    
Moisture  
Dew Point 62 °F    
Average Humidity 85    
Maximum Humidity 100    
Minimum Humidity 71    
Precipitation  
Precipitation 0.00 in - - ()
Sea Level Pressure  
Sea Level Pressure 30.22 in    
Wind  
Wind Speed 12 mph (SE)    
Max Wind Speed 21 mph    
Max Gust Speed 26 mph    
Visibility 10 miles    
Events      
Averages and records for this station are not official NWS values.
T = Trace of Precipitation, MM = Missing Value Source: NWS Daily Summary

Daily Weather History Graph

Daily Weather History Graph

Search for Another Location

Airport or City:

Astronomy

Sep. 13, 2019 Rise Set
Actual Time 6:57 AM EDT 7:32 PM EDT
Civil Twilight 6:29 AM EDT 8:00 PM EDT
Nautical Twilight 5:56 AM EDT 8:33 PM EDT
Astronomical Twilight 5:22 AM EDT 9:06 PM EDT
Moon 7:46 PM EDT (9/13) 6:11 AM EDT (9/13)
Length of Visible Light 13h 30m
Length of Day
12h 34m
Full, 100% of the Moon is Illuminated
Sep 13
Full
Sep 14
Full
Sep 21
Last Quarter
Sep 28
New
Oct 5
First Quarter

Hourly Weather History & Observations

Time (EDT) Temp. Dew Point Humidity Pressure Visibility Wind Dir Wind Speed Gust Speed Precip Events Conditions
12:56 AM 63.0 °F 61.0 °F 93% 30.24 in 10.0 mi East 6.9 mph - N/A   Overcast
1:56 AM 63.0 °F 60.1 °F 90% 30.24 in 10.0 mi ESE 11.5 mph 16.1 mph N/A   Overcast
2:56 AM 63.0 °F 60.1 °F 90% 30.23 in 10.0 mi ESE 9.2 mph - N/A   Overcast
3:56 AM 62.1 °F 60.1 °F 93% 30.23 in 10.0 mi SE 12.7 mph - N/A   Overcast
4:56 AM 62.1 °F 60.1 °F 93% 30.23 in 10.0 mi SE 13.8 mph - N/A   Overcast
5:56 AM 62.1 °F 60.1 °F 93% 30.24 in 10.0 mi SE 8.1 mph - N/A   Overcast
6:29 AM 62.6 °F 60.8 °F 94% 30.25 in 10.0 mi SE 11.5 mph - N/A   Overcast
6:56 AM 61.0 °F 60.1 °F 97% 30.24 in 10.0 mi SE 10.4 mph - N/A   Overcast
7:21 AM 60.8 °F 60.8 °F 100% 30.26 in 9.0 mi ESE 11.5 mph - N/A   Overcast
7:56 AM 62.1 °F 60.1 °F 93% 30.25 in 7.0 mi ESE 10.4 mph - N/A   Overcast
8:56 AM 63.0 °F 61.0 °F 93% 30.26 in 10.0 mi ESE 12.7 mph - N/A   Overcast
9:39 AM 64.4 °F 62.6 °F 94% 30.28 in 10.0 mi SE 9.2 mph - N/A   Overcast
9:56 AM 64.9 °F 62.1 °F 90% 30.27 in 10.0 mi SE 11.5 mph - N/A   Overcast
10:28 AM 66.2 °F 62.6 °F 88% 30.27 in 10.0 mi SE 12.7 mph - N/A   Overcast
10:56 AM 66.9 °F 64.0 °F 90% 30.26 in 10.0 mi SE 10.4 mph - N/A   Overcast
11:30 AM 69.8 °F 64.4 °F 83% 30.26 in 10.0 mi SE 13.8 mph - N/A   Overcast
11:56 AM 72.0 °F 66.0 °F 81% 30.25 in 10.0 mi SE 10.4 mph 20.7 mph N/A   Overcast
12:05 PM 73.4 °F 64.4 °F 73% 30.26 in 10.0 mi SE 17.3 mph 21.9 mph N/A   Mostly Cloudy
12:33 PM 73.4 °F 64.4 °F 73% 30.25 in 10.0 mi SSE 15.0 mph 21.9 mph N/A   Mostly Cloudy
12:56 PM 73.9 °F 66.0 °F 76% 30.23 in 10.0 mi SE 13.8 mph 19.6 mph N/A   Overcast
1:24 PM 75.2 °F 66.2 °F 73% 30.25 in 10.0 mi SE 15.0 mph - N/A   Overcast
1:56 PM 75.9 °F 66.9 °F 74% 30.22 in 10.0 mi SE 13.8 mph - N/A   Mostly Cloudy
2:56 PM 75.0 °F 66.9 °F 76% 30.21 in 10.0 mi SE 11.5 mph - N/A   Overcast
3:24 PM 75.2 °F 66.2 °F 73% 30.21 in 10.0 mi ESE 15.0 mph 23.0 mph N/A   Mostly Cloudy
3:56 PM 75.9 °F 66.0 °F 71% 30.18 in 10.0 mi SE 20.7 mph 26.5 mph N/A   Clear
4:56 PM 75.0 °F 66.0 °F 73% 30.17 in 10.0 mi SE 16.1 mph 25.3 mph N/A   Clear
5:56 PM 70.0 °F 63.0 °F 78% 30.18 in 10.0 mi ESE 16.1 mph 23.0 mph N/A   Scattered Clouds
6:07 PM 69.8 °F 62.6 °F 78% 30.19 in 10.0 mi ESE 17.3 mph 21.9 mph N/A   Mostly Cloudy
6:32 PM 66.2 °F 62.6 °F 88% 30.20 in 10.0 mi ESE 12.7 mph 21.9 mph N/A   Scattered Clouds
6:56 PM 66.0 °F 61.0 °F 84% 30.19 in 10.0 mi SE 19.6 mph 23.0 mph N/A   Clear
7:26 PM 64.4 °F 60.8 °F 88% 30.19 in 10.0 mi SE 15.0 mph 21.9 mph N/A   Mostly Cloudy
7:56 PM 64.0 °F 60.1 °F 87% 30.18 in 10.0 mi SE 15.0 mph - N/A   Overcast
8:56 PM 63.0 °F 59.0 °F 87% 30.18 in 10.0 mi SE 17.3 mph 24.2 mph N/A   Overcast
9:56 PM 63.0 °F 59.0 °F 87% 30.18 in 10.0 mi SE 15.0 mph 23.0 mph N/A   Overcast
10:56 PM 63.0 °F 60.1 °F 90% 30.18 in 10.0 mi SE 16.1 mph 24.2 mph N/A   Overcast
11:56 PM 64.0 °F 60.1 °F 87% 30.15 in 10.0 mi SSE 17.3 mph 24.2 mph N/A   Mostly Cloudy